Hurricane Symbol View the latest observations near East Pacific Tropical Storm Bud.

Station ANVC1 - 9416841 - Arena Cove, CA Image indicating link to RSS feed of recent meteorological observations for station ANVC1


Conditions at ANVC1 as of
(4:18 pm PDT)
2318 GMT on 07/24/2024:
     

Click on the graph icon in the table below to see a time series plot of the last five days of that observation.

5-day plot - Wind Direction Wind Direction (WDIR): W ( 270 deg true )
5-day plot - Wind Speed Wind Speed (WSPD): 4.1 kts
5-day plot - Wind Gust Wind Gust (GST): 5.1 kts
5-day plot - Atmospheric Pressure Atmospheric Pressure (PRES):30.06 in
5-day plot - Air Temperature Air Temperature (ATMP): 56.5 °F
5-day plot - Water Temperature Water Temperature (WTMP): 51.1 °F
5-day plot - Wind Speed at 10 Meters Wind Speed at 10 meters (WSPD10M): 3.9 kts
5-day plot - Wind Speed at 20 Meters Wind Speed at 20 meters (WSPD20M): 5.8 kts
5-day plot -  Wind Speed, Wind Gust and Atmospheric Pressure Combined plot of Wind Speed, Gust, and Air Pressure
NOS Water Level Observation Network Water Level
Previous observations
TIME
(PDT)
5-day plot - Wind Direction
WDIR
 
5-day plot - Wind Speed
WSPD
kts
5-day plot - Wind Gust
GST
kts
5-day plot - Wave Height
WVHT
ft
5-day plot - Dominant Wave Period
DPD
sec
5-day plot - Average Wave Period
APD
sec
5-day plot - Mean Wave Direction
MWD
 
5-day plot - Atmospheric Pressure
PRES
in
5-day plot - Pressure Tendency
PTDY
in
5-day plot - Air Temperature
ATMP
°F
5-day plot - Water Temperature
WTMP
°F
5-day plot - Dew Point
DEWP
°F
5-day plot - Salinity
SAL
psu
5-day plot - Visibility
VIS
nmi
5-day plot - Tide (above MLLW)
TIDE
ft
2024-07-24 04:12 pm W 5.1 5.1----30.06- 56.3 51.1----
2024-07-24 04:06 pm W 5.1 5.1----30.07- 55.9 51.1----
2024-07-24 04:00 pm W 2.9 4.1----30.07-0.01 56.8 51.1----
2024-07-24 03:54 pm W 1.9 1.9----30.07- 56.1 51.1----
2024-07-24 03:48 pm W 1.9 1.9----30.07-- 51.1----
2024-07-24 03:42 pm W 1.0 1.9----30.07-- 51.1----
2024-07-24 03:36 pmWNW 1.9 2.9----30.07-- 51.1----
2024-07-24 03:30 pmWNW 2.9 4.1----30.07- 55.4 51.1----
2024-07-24 03:24 pm W 2.9 5.1----30.07- 55.9 51.4----
2024-07-24 03:18 pm SW 4.1 5.1----30.07- 56.1 51.1----
2024-07-24 03:12 pmWSW 1.9 5.1----30.07- 56.5 51.1----
2024-07-24 03:06 pm S 4.1 6.0----30.07- 57.6 51.1----
2024-07-24 03:00 pm S 4.1 6.0----30.07+0.00 58.5 51.1----
2024-07-24 02:54 pm S 2.9 7.0----30.07- 58.8 51.1----
2024-07-24 02:48 pm S 4.1 6.0----30.08- 58.8 51.1----
2024-07-24 02:42 pm S 4.1 6.0----30.08- 58.5 51.1----
2024-07-24 02:36 pm S 5.1 5.1----30.08- 58.1 51.1----
2024-07-24 02:30 pm S 2.9 6.0----30.08- 57.4 51.1----
2024-07-24 02:24 pmSSW 5.1 6.0----30.08- 57.0 51.4----
2024-07-24 02:18 pm S 4.1 6.0----30.08- 56.7 51.6----
2024-07-24 02:12 pmSSW 4.1 6.0----30.08- 55.8 51.6----
2024-07-24 02:06 pmSSW 4.1 6.0----30.08- 55.4 51.1----
2024-07-24 02:00 pm SW 2.9 5.1----30.08+0.02 54.7 51.1----
2024-07-24 01:54 pm SW 2.9 5.1----30.08- 54.7 51.1----
2024-07-24 01:48 pm SW 4.1 8.0----30.07-- 51.1----
2024-07-24 01:42 pmSSW 5.1 8.9----30.07-- 51.1----
2024-07-24 01:36 pmSSW 6.0 8.9----30.07-- 51.1----
2024-07-24 01:30 pmSSW 6.0 8.9----30.07- 56.5 51.1----
2024-07-24 01:24 pmSSW 6.0 8.9----30.07- 56.1 51.1----
2024-07-24 01:18 pmSSW 5.1 7.0----30.07- 55.9 51.1----
2024-07-24 01:12 pmSSW 2.9 6.0----30.07- 55.4 51.4----
2024-07-24 01:06 pmSSW 2.9 6.0----30.07- 55.2 51.4----
2024-07-24 01:00 pm SW 2.9 5.1----30.08+0.04 54.3 51.6----
2024-07-24 12:54 pm SW 4.1 8.0----30.07- 54.5 51.4----
2024-07-24 12:48 pmSSW 6.0 8.0----30.07-- 51.4----
2024-07-24 12:42 pmSSW 4.1 6.0----30.07- 54.3 51.4----
2024-07-24 12:36 pmSSW 5.1 7.0----30.07- 54.3 51.4----
2024-07-24 12:30 pmSSW 6.0 8.9----30.07- 54.5 51.4----
2024-07-24 12:24 pmSSW 6.0 8.9----30.07- 54.5 51.6----
2024-07-24 12:18 pmSSW 6.0 9.9----30.07- 54.5 51.6----
2024-07-24 12:12 pmSSW 6.0 8.0----30.07- 54.3 51.6----
2024-07-24 12:06 pmSSW 7.0 8.9----30.07- 54.3 51.4----
2024-07-24 12:00 pmSSW 7.0 8.9----30.07+0.04 54.3 52.7----
2024-07-24 11:54 amSSW 8.0 9.9----30.06- 54.5 51.6----
2024-07-24 11:48 amSSW 7.0 8.9----30.06-- 51.6----
2024-07-24 11:42 amSSW 7.0 8.9----30.07- 54.0 51.6----
2024-07-24 11:36 amSSW 6.0 8.0----30.06- 53.4 51.6----
2024-07-24 11:30 amSSW 7.0 8.9----30.06- 53.8 51.6----
2024-07-24 11:24 amSSW 6.0 9.9----30.06- 53.6 51.6----
2024-07-24 11:18 amSSW 7.0 8.0----30.06- 54.0 52.2----
2024-07-24 11:12 amSSW 6.0 8.0----30.06- 54.1 51.6----
2024-07-24 11:06 amSSW 6.0 7.0----30.06- 54.1 51.4----
2024-07-24 11:00 amSSW 5.1 7.0----30.06+0.04 54.0 51.4----
2024-07-24 10:54 amSSW 5.1 6.0----30.06- 53.8 51.4----
2024-07-24 10:48 amSSW 5.1 6.0----30.06- 53.6 51.3----
2024-07-24 10:42 amSSW 5.1 5.1----30.06- 53.6 51.3----
2024-07-24 10:36 amSSW 5.1 7.0----30.05- 53.8 51.1----
2024-07-24 10:30 amSSW 6.0 7.0----30.05- 54.3 51.1----
2024-07-24 10:24 amSSW 5.1 8.0----30.04- 54.5 51.8----
2024-07-24 10:18 amSSW 4.1 6.0----30.04- 54.5 50.9----
2024-07-24 10:12 amSSW 4.1 6.0----30.04- 54.0 50.9----
2024-07-24 10:06 amSSW 5.1 6.0----30.04- 54.1 50.9----
2024-07-24 10:00 amSSW 4.1 6.0----30.04+0.04 53.8 51.3----
2024-07-24 09:54 amSSW 5.1 8.0----30.03- 54.0 50.9----
2024-07-24 09:48 amSSW 6.0 8.9----30.03-- 51.8----
2024-07-24 09:42 amSSW 6.0 9.9----30.03-- 50.9----
2024-07-24 09:36 am S 5.1 8.0----30.03-- 50.9----
2024-07-24 09:30 amSSW 5.1 8.0----30.03- 56.8 50.9----
2024-07-24 09:24 amSSW 4.1 8.0----30.03- 56.3 50.9----
2024-07-24 09:18 amSSW 5.1 8.9----30.03-- 51.3----
2024-07-24 09:12 amSSW 5.1 7.0----30.03- 55.6 51.3----
2024-07-24 09:06 amSSW 6.0 8.0----30.03- 55.4 50.9----
2024-07-24 09:00 amSSW 6.0 9.9----30.03+0.04 55.6 50.9----
2024-07-24 08:54 amSSW 5.1 8.9----30.02- 55.8 50.9----
2024-07-24 08:48 amSSW 4.1 8.0----30.02-- 50.9----
2024-07-24 08:42 amSSW 5.1 8.0----30.02-- 50.9----
2024-07-24 08:36 amSSW 5.1 8.9----30.02-- 50.9----
2024-07-24 08:30 amSSW 2.9 7.0----30.02- 55.4 50.9----
2024-07-24 08:24 amSSW 2.9 6.0----30.02- 55.0 50.9----
2024-07-24 08:18 amSSW 2.9 7.0----30.02- 54.9 50.9----
2024-07-24 08:12 amSSW 2.9 6.0----30.02- 54.9 50.9----
2024-07-24 08:06 amSSW 2.9 6.0----30.02- 54.9 51.3----
2024-07-24 08:00 amSSW 1.9 7.0----30.01+0.04 54.9 51.1----
2024-07-24 07:54 amSSW 2.9 6.0----30.01- 55.0 50.9----
2024-07-24 07:48 amSSW 2.9 4.1----30.01- 55.2 51.1----
2024-07-24 07:42 am SW 1.0 1.9----30.01- 54.9 50.9----
2024-07-24 07:36 am- 0.0 4.1----30.01- 53.8 50.9----
2024-07-24 07:30 am- 0.0 1.0----30.01- 53.6 51.1----
2024-07-24 07:24 am- 0.0 1.0----30.01- 53.2 51.3----
2024-07-24 07:18 am- 0.0 1.0----30.01- 52.7 50.9----
2024-07-24 07:12 am- 0.0 0.0----30.01- 52.3 51.1----
2024-07-24 07:06 am- 0.0 0.0----30.00- 52.5 50.9----
2024-07-24 07:00 am- 0.0 1.0----30.00+0.04 52.5 50.9----
2024-07-24 06:54 am- 0.0 1.0----30.00- 52.3 50.9----
2024-07-24 06:48 amWNW 1.0 1.9----30.00-- 50.9----
2024-07-24 06:42 am NW 1.0 1.9----29.99-- 50.9----
2024-07-24 06:36 am- 0.0 1.0----30.00-- 50.9----
2024-07-24 06:30 am- 0.0 2.9----29.99- 52.2 50.9----
2024-07-24 06:24 am E 1.9 2.9----29.99- 52.5 50.9----
2024-07-24 06:18 am E 1.9 1.9----29.99- 52.7 50.9----
2024-07-24 06:12 am E 1.9 1.9----29.99- 52.0 50.9----
2024-07-24 06:06 amESE 1.9 1.9----29.99- 51.8 50.9----
2024-07-24 06:00 amESE 1.0 1.9----29.99+0.02 52.2 50.9----
2024-07-24 05:54 am- 0.0 1.9----29.98- 52.2 50.9----
2024-07-24 05:48 am E 1.9 1.9----29.98- 52.3 50.9----
2024-07-24 05:42 amESE 1.0 2.9----29.98- 52.3 50.9----
2024-07-24 05:36 amESE 1.9 4.1----29.98- 52.2 50.9----
2024-07-24 05:30 amESE 4.1 4.1----29.98- 52.5 50.9----
2024-07-24 05:24 am E 4.1 5.1----29.98- 52.9 50.7----
2024-07-24 05:18 am E 4.1 5.1----29.98- 53.1 50.7----
2024-07-24 05:12 am E 4.1 5.1----29.97- 53.2 50.5----
2024-07-24 05:06 am E 4.1 4.1----29.98- 53.1 50.5----
2024-07-24 05:00 am E 4.1 5.1----29.98+0.01 52.9 50.5----
2024-07-24 04:54 am E 4.1 5.1----29.97- 53.1 50.5----
2024-07-24 04:48 am E 4.1 5.1----29.97- 53.1 50.4----
2024-07-24 04:42 am E 4.1 5.1----29.97- 53.1 50.4----
2024-07-24 04:36 am E 4.1 4.1----29.97- 53.1 50.4----
2024-07-24 04:30 am E 2.9 5.1----29.97- 53.1 50.4----
2024-07-24 04:24 am E 4.1 5.1----29.97- 53.2 50.4----
2024-07-24 04:18 am E 4.1 4.1----29.97- 53.2 50.4----
2024-07-24 04:12 am E 4.1 5.1----29.97- 53.2 50.4----
2024-07-24 04:06 am E 4.1 5.1----29.97- 53.2 50.4----
2024-07-24 04:00 am E 2.9 4.1----29.97+0.00 53.4 50.4----
2024-07-24 03:54 am E 1.9 4.1----29.97- 53.2 50.4----
2024-07-24 03:48 am E 2.9 4.1----29.96- 53.4 50.4----
2024-07-24 03:42 amENE 1.9 5.1----29.97- 53.8 50.4----
2024-07-24 03:36 am E 4.1 5.1----29.97- 53.4 50.4----
2024-07-24 03:30 am E 4.1 5.1----29.96- 53.8 50.4----
2024-07-24 03:24 amENE 1.9 4.1----29.96- 54.0 50.4----
2024-07-24 03:18 am E 1.9 4.1----29.96- 53.8 50.4----
2024-07-24 03:12 am E 2.9 2.9----29.97- 53.8 50.4----
2024-07-24 03:06 am E 1.9 4.1----29.96- 53.8 50.4----
2024-07-24 03:00 amESE 4.1 4.1----29.96+0.00 53.8 50.2----
2024-07-24 02:54 amESE 2.9 4.1----29.97- 54.0 50.2----
2024-07-24 02:48 am E 2.9 2.9----29.96- 54.1 50.2----
2024-07-24 02:42 am E 1.9 2.9----29.96- 54.1 50.2----
2024-07-24 02:36 amESE 1.0 1.9----29.96- 54.3 50.2----
2024-07-24 02:30 am E 1.0 1.9----29.96- 54.5 50.2----
2024-07-24 02:24 am E 1.0 1.9----29.97- 54.5 50.2----
2024-07-24 02:18 am- 0.0 1.0----29.97- 54.3 50.2----
2024-07-24 02:12 am- 0.0 1.0----29.97- 54.5 50.2----
2024-07-24 02:06 am NW 1.0 1.9----29.97- 54.3 50.2----
2024-07-24 02:00 amWNW 1.9 1.9----29.97+0.02 54.1 50.2----
2024-07-24 01:54 am- 0.0 1.0----29.96- 54.1 50.2----
2024-07-24 01:48 am- 0.0 0.0----29.97-- 50.2----
2024-07-24 01:42 am- 0.0 1.0----29.97- 54.3 50.2----
2024-07-24 01:36 am- 0.0 1.0----29.97- 54.3 50.2----
2024-07-24 01:30 am W 1.0 1.0----29.96- 54.5 50.2----
2024-07-24 01:24 am- 0.0 0.0----29.96- 54.5 50.2----
2024-07-24 01:18 am- 0.0 0.0----29.97- 54.5 50.0----
2024-07-24 01:12 am- 0.0 1.0----29.97- 54.7 50.0----
2024-07-24 01:06 amWSW 1.0 1.9----29.97- 54.5 50.0----
2024-07-24 01:00 am- 0.0 1.9----29.96+0.02 54.5 50.0----
2024-07-24 12:54 am W 1.9 2.9----29.97- 54.7 50.0----
2024-07-24 12:48 amWSW 1.9 1.9----29.96-- 50.0----
2024-07-24 12:42 am- 0.0 1.9----29.97- 55.0 50.0----
2024-07-24 12:36 am- 0.0 1.9----29.96- 55.2 50.0----
2024-07-24 12:30 am SE 1.9 2.9----29.96- 55.2 50.0----
2024-07-24 12:24 amNNW 1.9 2.9----29.96- 55.2 50.0----
2024-07-24 12:18 am- 0.0 2.9----29.97- 55.2 50.0----
2024-07-24 12:12 am SE 2.9 2.9----29.97- 55.0 50.0----
2024-07-24 12:06 am E 1.9 5.1----29.96- 55.0 50.0----
2024-07-24 12:00 amESE 4.1 6.0----29.96+0.04 54.7 50.0----
2024-07-23 11:54 pm E 6.0 6.0----29.96- 54.9 50.0----
2024-07-23 11:48 pm E 5.1 6.0----29.96- 54.9 50.2----
2024-07-23 11:42 pm E 5.1 6.0----29.96- 54.7 50.2----
2024-07-23 11:36 pm E 2.9 4.1----29.95- 54.9 50.4----
2024-07-23 11:30 pm E 5.1 6.0----29.96- 54.7 50.5----
2024-07-23 11:24 pm E 5.1 5.1----29.96- 54.9 50.7----
2024-07-23 11:18 pm E 5.1 5.1----29.96- 55.0 50.9----
2024-07-23 11:12 pm E 2.9 5.1----29.96- 55.0 50.9----
2024-07-23 11:06 pm E 2.9 5.1----29.95- 55.0 51.1----
2024-07-23 11:00 pm- 0.0 2.9----29.95+0.03 54.9 51.3----
2024-07-23 10:54 pm E 1.9 4.1----29.95- 54.9 51.4----
2024-07-23 10:48 pm E 2.9 5.1----29.95- 54.9 51.4----
2024-07-23 10:42 pm E 1.9 4.1----29.95- 54.9 51.4----
2024-07-23 10:36 pm E 1.9 4.1----29.95- 55.0 51.4----
2024-07-23 10:30 pm SE 2.9 5.1----29.95- 54.9 51.4----
2024-07-23 10:24 pmESE 2.9 5.1----29.94- 55.2 51.4----
2024-07-23 10:18 pm E 2.9 6.0----29.95-- 51.4----
2024-07-23 10:12 pm- 0.0 1.9----29.94- 55.4 51.4----
2024-07-23 10:06 pmENE 1.0 4.1----29.94- 55.8 51.4----
2024-07-23 10:00 pm E 1.9 5.1----29.94+0.04 55.9 51.4----
2024-07-23 09:54 pm E 1.9 5.1----29.94- 55.9 51.3----
2024-07-23 09:48 pmESE 2.9 4.1----29.93- 56.1 51.3----
2024-07-23 09:42 pm- 0.0 2.9----29.93- 56.5 51.3----
2024-07-23 09:36 pm E 1.9 5.1----29.93- 56.5 51.3----
2024-07-23 09:30 pmESE 4.1 6.0----29.93- 56.7 51.4----
2024-07-23 09:24 pm E 1.0 4.1----29.93- 57.6 51.4----
2024-07-23 09:18 pmENE 1.0 2.9----29.93- 57.9 51.3----
2024-07-23 09:12 pm- 0.0 1.9----29.93- 58.5 51.3----
2024-07-23 09:06 pm- 0.0 1.9----29.93- 59.4 51.3----
2024-07-23 09:00 pm-------29.92+0.01 59.5 51.3----
2024-07-23 08:54 pm-------29.92- 60.1 51.1----
2024-07-23 08:48 pm NE 1.0 2.9----29.92- 60.3 51.1----
2024-07-23 08:42 pm- 0.0 4.1----29.92- 60.8 51.1----
2024-07-23 08:36 pm E 1.9 5.1----29.92- 61.0 51.1----
2024-07-23 08:30 pm E 2.9 5.1----29.91- 61.5 51.1----
2024-07-23 08:24 pm- 0.0 1.0----29.92- 62.1 51.1----
2024-07-23 08:18 pm E 1.9 4.1----29.92- 62.2 51.1----
2024-07-23 08:12 pm- 0.0 1.9----29.92- 62.8 51.1----
2024-07-23 08:06 pm- 0.0 1.9----29.92- 63.1 50.9----
2024-07-23 08:00 pm- 0.0 1.0----29.91+0.00 63.7 50.9----
2024-07-23 07:54 pm- 0.0 1.9----29.91- 63.3 50.9----
2024-07-23 07:48 pm W 1.0 1.9----29.91- 63.5 51.1----
2024-07-23 07:42 pm- 0.0 2.9----29.91- 63.5 50.9----
2024-07-23 07:36 pm NW 1.9 4.1----29.91- 63.9 50.9----
2024-07-23 07:30 pmNNW 1.0 5.1----29.91- 63.9 51.1----
2024-07-23 07:24 pmWNW 2.9 6.0----29.91- 63.7 51.1----
2024-07-23 07:18 pm NW 4.1 8.0----29.91- 63.3 51.3----
2024-07-23 07:12 pm W 2.9 5.1----29.91- 63.5 51.1----
2024-07-23 07:06 pm NW 4.1 6.0----29.90- 63.5 51.3----
2024-07-23 07:00 pm W 4.1 6.0----29.90-0.03 63.5 51.3----
2024-07-23 06:54 pmWNW 1.9 6.0----29.90- 63.9 51.3----
2024-07-23 06:48 pm NW 5.1 8.9----29.90- 63.7 51.3----
2024-07-23 06:42 pm NW 4.1 8.0----29.90- 63.5 51.4----
2024-07-23 06:36 pmWNW 5.1 6.0----29.91- 63.1 51.4----
2024-07-23 06:30 pmWNW 6.0 8.0----29.91- 62.6 51.3----
2024-07-23 06:24 pmWNW 7.0 8.0----29.91- 62.2 51.3----
2024-07-23 06:18 pmWNW 7.0 8.0----29.91- 62.1 51.4----
2024-07-23 06:12 pm W 7.0 8.0----29.91- 61.7 51.3----
2024-07-23 06:06 pm W 7.0 8.0----29.91- 61.7 51.3----
2024-07-23 06:00 pm W 6.0 7.0----29.91-0.01 61.7 51.3----
2024-07-23 05:54 pm W 6.0 7.0----29.91- 61.0 51.1----
2024-07-23 05:48 pm W 4.1 5.1----29.91- 60.8 51.1----
2024-07-23 05:42 pm W 5.1 5.1----29.91- 60.1 51.1----
2024-07-23 05:36 pm W 4.1 5.1----29.91- 60.4 51.1----
2024-07-23 05:30 pm W 4.1 5.1----29.91- 60.3 51.1----
2024-07-23 05:24 pm W 2.9 4.1----29.91- 60.1 51.1----
2024-07-23 05:18 pmWNW 1.9 4.1----29.91- 58.8 51.1----
2024-07-23 05:12 pm W 1.9 1.9----29.91- 59.5 51.1----
2024-07-23 05:06 pm W 1.0 1.9----29.92- 59.5 51.1----
2024-07-23 05:00 pm W 1.0 1.9----29.92+0.00 59.2 51.1----
2024-07-23 04:54 pm W 1.0 1.9----29.92- 60.3 51.3----